Regional Weather Roundup
Issued by NWS Northern Indiana

Home | Current Version | Previous Version | Text Only | Print | Product List | Glossary Off
Versions: 1 2 3 4 5 6 7 8 9 10 11 12 13 14 15 16 17 18 19 20 21 22 23 24 25 26 27 28 29 30 31 32 33 34 35 36 37 38 39 40 41 42 43 44 45 46 47 48 49 50

000
ASUS43 KIWX 271900
RWRIWX

KIWX WEATHER ROUNDUP
NATIONAL WEATHER SERVICE NORTHERN INDIANA
200 PM EST MON FEB 27 2017

NOTE: "FAIR" INDICATES FEW OR NO CLOUDS BELOW 12,000 FEET WITH NO
SIGNIFICANT WEATHER AND/OR OBSTRUCTIONS TO VISIBILITY.

* THESE STATIONS ARE NOT UNDER NWS QUALITY CONTROL. THEY ALSO MAY NOT
  REPORT WEATHER SUCH AS PRECIPITATION OR FOG.

INZ001>027-272000-
NORTHERN INDIANA

CITY           SKY/WX    TMP DP  RH WIND       PRES   REMARKS
GARY*          PTSUNNY   52  32  46 S9        30.15F
KNOX*          CLOUDY    48  14  25 S9        30.16S
SOUTH BEND     MOSUNNY   48  33  56 S10       30.16F
ELKHART*       MOSUNNY   48  32  53 S8        30.17
GOSHEN         MOSUNNY   50  34  54 S15       30.17F
ANGOLA*        PTSUNNY   48  36  61 S8        30.16F
FORT WAYNE     PTSUNNY   50  33  52 S3        30.18F

$$
INZ028>050-272000-
CENTRAL INDIANA

CITY           SKY/WX    TMP DP  RH WIND       PRES   REMARKS
LAFAYETTE      PTSUNNY   52  35  52 SW8       30.14F
KOKOMO*        PTSUNNY   51  35  54 SE7       30.17F
MUNCIE*        CLOUDY    50  36  58 S9        30.18F
INDIANAPOLIS   PTSUNNY   52  37  56 SE13      30.16F

$$
MIZ043>046-050>051-056>058-064>065-071>073-077>080-272000-
SOUTHWEST LOWER MICHIGAN

CITY           SKY/WX    TMP DP  RH WIND       PRES   REMARKS
BATTLE CREEK   MOSUNNY   49  29  46 SW10      30.16F
BENTON HARBOR  SUNNY     50  29  44 S8        30.15F
COLDWATER*     PTSUNNY   50  30  46 SW9       30.16F
HILLSDALE*     PTSUNNY   45  32  61 S9        30.16S
HOLLAND        SUNNY     51  28  41 SW15      30.16F
GRAND RAPIDS   MOSUNNY   47  31  53 SW7       30.15F
KALAMAZOO      SUNNY     49  28  44 S9        30.17F
STURGIS*       MOSUNNY   48  34  56 S10       30.16S
THREE RIVERS*  PTSUNNY   49  31  50 S10       30.17S

$$
OHZ001>008-015>018-024>025-272000-
NORTHWEST OHIO

CITY           SKY/WX    TMP DP  RH WIND       PRES   REMARKS
DEFIANCE       MOSUNNY   48  35  60 SW12      30.19F
FINDLAY        CLOUDY    50  31  48 S9        30.20F
TOLEDO EXPRESS MOSUNNY   48  32  53 SW13      30.19F
TOLEDO METCALF MOSUNNY   50  33  52 S14       30.22F
LIMA           PTSUNNY   49  30  48 S9        30.20F

$$
AND FOR LAKE MICHIGAN COASTAL AND OPEN LAKE BUOY OBSERVATIONS

STATION/POSITION TEMP    WIND        PRES    VSBY  WAVE
                 AIR SEA DIR/SP/G                  HT/PER
                 (F)     (DEG/KT/KT) (MB)    (MI)  (FT/S)
CALUMET HARBOR    47     180/  7/ 17 1020.1F
MICHIGAN CITY     47     160/ 11/ 13   N/A
BURNS HARBOR      48     210/ 11/ 18 1021.3F

$$
&&




USA.gov is the U.S. government's official web portal to all federal, state and local government web resources and services.